#timestamp,LO_Frequency,Hit,StdDev 
1609023615.3,286047014.1,N
1609023635.1,286047021.7,Y
1609023655.8,286047011.7,P
1609023675.7,286047020.3,P
1609023695.5,286047018.3,P
1609023715.4,286047014.6,Y
1609023735.2,286047004.1,P
1609023755.0,286047001.9,N
1609023755.9,286047001.9,N
1609023775.8,286046996.6,N
1609023795.6,286046995.6,N
1609023815.4,286046992.1,N
1609023835.3,286046988.7,N
1609023855.1,286046989.0,N
1609023875.9,286046992.1,N
1609023895.7,286046993.5,N
1609023915.5,286046992.4,N
1609023935.4,286046989.7,N
1609023955.2,286046987.2,N
1609023975.0,286046989.6,N
1609023976.0,286046989.6,N
1609023995.8,286046992.1,N
1609024015.6,286046987.8,N
1609024035.5,286046982.6,N
1609024055.3,286046985.4,N
1609024075.1,286046993.2,N
1609024095.9,286046996.7,N
1609024115.7,286046997.2,N
1609024135.5,286047004.3,N
1609024155.4,286047000.4,N
1609024175.2,286047002.8,N
1609024195.1,286047000.1,N
1609024196.0,286047000.1,N
1609024215.8,286047000.1,N
1609024235.6,286047001.4,N
1609024255.5,286046999.6,N
1609024275.3,286046995.0,N
1609024295.2,286046996.1,N
1609024315.9,286046999.5,N
1609024335.7,286047001.9,N
1609024355.6,286047003.6,N
1609024375.4,286047004.0,N
1609024395.2,286047011.0,N
1609024415.1,286047007.1,N
1609024416.0,286047007.1,N
1609024435.8,286047003.5,N
1609024455.7,286047002.9,N
1609024475.5,286047003.7,N
1609024495.3,286047007.1,N
1609024515.2,286047015.3,N
1609024535.0,286047016.2,N
1609024535.9,286047016.2,N
1609024555.7,286047023.2,N
1609024575.6,286047019.4,N
1609024595.4,286047028.9,Y
1609024615.3,286047031.6,P
1609024635.1,286047029.1,N
1609024636.0,286047029.1,N
1609024655.8,286047029.5,N
1609024675.7,286047027.6,N
1609024695.5,286047027.3,N
1609024715.4,286047028.5,Y
1609024735.2,286047009.3,P
1609024755.0,286047011.3,N
1609024755.9,286047011.3,N
1609024775.8,286047017.3,N
1609024795.6,286047019.6,Y
1609024815.5,286047004.8,P
1609024835.3,286047005.4,N
1609024855.1,286047005.7,N
1609024875.9,286047003.4,N
1609024895.7,286047000.9,N
1609024915.5,286046996.9,N
1609024935.4,286046995.3,N
1609024955.2,286046998.7,N
1609024975.1,286046998.5,N
1609024976.0,286046998.5,N
1609024995.8,286047005.8,N
1609025015.6,286047008.4,N
1609025035.5,286047009.9,N
1609025055.3,286047014.4,N
1609025075.2,286047017.6,N
1609025095.9,286047021.3,Y
1609025115.7,286047019.8,P
1609025135.6,286047017.8,N
1609025155.4,286047018.9,N
1609025175.2,286047016.5,N
1609025195.1,286047014.7,N
1609025196.0,286047014.7,N
1609025215.8,286047020.6,Y
1609025235.7,286047011.3,P
1609025255.5,286047012.5,P
1609025275.3,286047015.0,P
1609025295.2,286047009.6,Y
1609025315.0,286046988.3,P
1609025315.9,286046988.3,N
1609025335.8,286046982.3,N
1609025355.6,286046984.4,N
1609025375.4,286046983.3,N
1609025395.3,286046984.5,N
1609025415.1,286046981.8,N
1609025435.9,286046980.3,N
1609025455.7,286046978.9,N
1609025475.5,286046977.3,N
1609025495.4,286046983.0,N
1609025515.2,286046981.2,N
1609025535.1,286046986.8,N
1609025536.0,286046986.8,N
1609025555.8,286046991.7,N
1609025575.6,286046996.0,N
1609025595.5,286046988.7,N
1609025615.3,286046995.7,N
1609025635.1,286047001.1,N
1609025655.9,286047011.9,N
1609025675.7,286047009.8,N
1609025695.6,286047016.1,N
1609025715.4,286047024.6,N
1609025735.2,286047020.1,N
1609025755.1,286047015.8,N
1609025756.0,286047015.8,N
1609025775.8,286047013.9,N
1609025795.7,286047010.7,N
1609025815.5,286047004.6,N
1609025835.3,286047007.3,N
1609025855.2,286047003.8,N
1609025875.0,286046995.7,N
1609025875.9,286046995.7,N
1609025895.7,286046995.8,N
1609025915.6,286046995.8,N
1609025935.4,286046994.3,N
1609025955.3,286046985.5,N
1609025975.1,286046989.5,N
1609025976.0,286046989.5,N
1609025995.8,286046994.7,N
1609026015.7,286046997.5,N
1609026035.5,286046998.2,N
1609026055.3,286047001.6,N
1609026075.2,286046997.0,N
1609026095.0,286046998.0,N
1609026095.9,286046998.0,N
1609026115.8,286046995.7,N
1609026135.6,286046987.8,N
1609026155.4,286046984.8,N
1609026175.3,286046987.6,N
1609026195.1,286046991.8,N
1609026215.9,286046993.8,N
1609026235.7,286046991.8,N
1609026255.5,286047002.0,N
1609026275.4,286047005.5,N
1609026295.2,286047010.2,N
1609026315.0,286047010.3,N
1609026315.9,286047010.3,N
1609026335.8,286047011.2,N
1609026355.6,286047015.8,N
1609026375.5,286047015.8,N
1609026395.3,286047015.1,N
1609026415.1,286047003.4,N
1609026435.9,286046994.9,N
1609026455.7,286046991.9,N
1609026475.6,286046994.0,N
1609026495.4,286046996.6,N
1609026515.2,286047000.8,N
1609026535.1,286047002.2,N
1609026536.0,286047002.2,N
1609026555.8,286047006.0,N
1609026575.7,286047015.2,N
1609026595.5,286047015.5,N
1609026615.4,286047013.9,N
1609026635.2,286047011.7,N
1609026655.0,286047015.2,N
1609026655.9,286047015.2,N
1609026675.8,286047013.3,N
1609026695.6,286047015.0,N
1609026715.5,286047016.7,N
1609026735.3,286047016.5,N
1609026755.1,286047020.1,N
1609026775.9,286047023.2,N
1609026795.7,286047034.1,Y
1609026815.5,286047027.7,P
1609026835.4,286047028.7,P
1609026855.2,286047030.2,P
1609026875.1,286047024.6,N
1609026876.0,286047024.6,Y
1609026895.8,286047000.8,P
1609026915.6,286047002.0,N
1609026935.5,286047003.5,N
1609026955.3,286046999.7,N
1609026975.1,286046995.5,N
1609026995.9,286046993.5,N
1609027015.7,286046995.6,N
1609027035.6,286046994.1,N
1609027055.4,286046994.4,N
1609027075.2,286046992.0,N
1609027095.1,286046999.1,N
1609027096.0,286046999.1,N
1609027115.8,286046999.5,N
1609027135.6,286046998.0,N
1609027155.5,286046996.2,N
1609027175.3,286046994.6,N
1609027195.2,286046995.5,N
